Date String (YYYY-MM-DD hh:mm:ss) UTC,Instrument flags,Ambient pressure (hPa),Sample flow (lpm),Bypass flow (lpm),Sample temperature (°C),Ambient temperature (°C),ASC tube jacket temperature (°C),LED temperature (°C),Box temperature (°C),Sample RH (%),Span deviation,Mass concentration (μg/m³),Mass concentration (μg/m³),Mass concentration (μg/m³)
DateTimeUTC,F1_M11,P_M11,Q1_M11,Q2_M11,T1_M11,T2_M11,T3_M11,T4_M11,T5_M11,U1_M11,ZSPAN_M11,X2_M11,X0_M11,X1_M11
2023-02-22 08:00:00,,0805.2,5.00,0.00,22.6,21.1,00.0,31.3,24.2,13.0,0000.0,0003.20,0005.41,0002.83
2023-02-22 08:01:00,,0805.3,5.02,0.00,22.6,21.5,00.0,31.3,24.3,12.9,0000.0,0003.20,0005.42,0002.84
2023-02-22 08:02:00,,0805.2,4.99,0.00,22.7,22.6,00.0,31.3,24.6,12.8,0000.0,0003.22,0005.54,0002.85
2023-02-22 08:03:00,,0805.3,4.97,0.00,22.8,23.5,00.0,31.3,24.9,12.6,0000.0,0003.26,0005.41,0002.88
2023-02-22 08:04:00,,0805.3,4.99,0.00,22.9,23.8,00.0,31.4,25.0,12.5,0000.0,0003.26,0004.50,0002.89
2023-02-22 08:05:00,,0805.4,5.02,0.00,23.0,23.2,00.0,31.4,24.9,12.4,0000.0,0003.30,0004.69,0002.90
2023-02-22 08:06:00,,0805.4,4.99,0.00,22.9,22.6,00.0,31.5,24.8,12.4,0000.0,0003.29,0004.66,0002.93
2023-02-22 08:07:00,,0805.5,5.00,0.00,22.9,22.1,00.0,31.5,24.6,12.3,0000.0,0003.30,0004.65,0002.96
2023-02-22 08:08:00,,0805.4,5.01,0.00,22.9,21.6,00.0,31.5,24.5,12.3,0000.0,0003.32,0004.72,0003.00
2023-02-22 08:09:00,,0805.5,5.00,0.00,22.8,21.4,00.0,31.5,24.5,12.3,0000.0,0003.35,0004.89,0003.03
2023-02-22 08:10:00,,0805.5,5.04,0.00,22.9,22.2,00.0,31.5,24.7,12.2,0000.0,0003.40,0005.02,0003.09
2023-02-22 08:11:00,,0805.6,5.01,0.00,23.0,23.2,00.0,31.5,24.9,12.1,0000.0,0003.45,0005.12,0003.13
2023-02-22 08:12:00,,0805.6,5.00,0.00,23.1,23.6,00.0,31.6,25.0,12.0,0000.0,0003.48,0005.24,0003.16
2023-02-22 08:13:00,,0805.6,5.00,0.00,23.1,23.0,00.0,31.6,24.9,12.0,0000.0,0003.53,0005.41,0003.19
2023-02-22 08:14:00,,0805.6,4.99,0.00,23.1,22.5,00.0,31.6,24.8,11.9,0000.0,0003.56,0005.42,0003.22
2023-02-22 08:15:00,,0805.6,5.00,0.00,23.0,22.0,00.0,31.7,24.7,11.9,0000.0,0003.61,0005.63,0003.26
2023-02-22 08:16:00,,0805.6,5.00,0.00,23.0,21.6,00.0,31.7,24.6,11.9,0000.0,0003.65,0005.76,0003.29
2023-02-22 08:17:00,,0805.6,5.00,0.00,22.9,21.3,00.0,31.7,24.4,11.9,0000.0,0003.67,0005.84,0003.33
2023-02-22 08:18:00,,0805.7,5.00,0.00,22.8,21.1,00.0,31.7,24.3,11.9,0000.0,0003.70,0005.93,0003.35
2023-02-22 08:19:00,,0805.7,5.01,0.00,22.8,20.9,00.0,31.6,24.3,11.9,0000.0,0003.71,0006.15,0003.37
2023-02-22 08:20:00,,0805.7,5.01,0.00,22.8,21.1,00.0,31.6,24.3,11.9,0000.0,0003.74,0006.75,0003.40
2023-02-22 08:21:00,,0805.7,4.99,0.00,22.8,22.1,00.0,31.6,24.6,11.8,0000.0,0003.76,0006.87,0003.41
2023-02-22 08:22:00,,0805.7,4.99,0.00,22.9,23.1,00.0,31.6,24.8,11.7,0000.0,0003.77,0006.86,0003.42
2023-02-22 08:23:00,,0805.7,4.99,0.00,23.0,23.0,00.0,31.6,24.8,11.7,0000.0,0003.80,0006.96,0003.44
2023-02-22 08:24:00,,0805.8,4.99,0.00,23.0,22.5,00.0,31.7,24.8,11.6,0000.0,0003.79,0006.88,0003.46
2023-02-22 08:25:00,,0805.8,5.01,0.00,23.0,22.0,00.0,31.7,24.6,11.6,0000.0,0003.81,0007.11,0003.46
2023-02-22 08:26:00,,0805.8,4.99,0.00,22.9,21.7,00.0,31.7,24.5,11.6,0000.0,0003.82,0007.42,0003.46
2023-02-22 08:27:00,,0805.7,5.00,0.00,22.8,21.4,00.0,31.7,24.3,11.6,0000.0,0003.81,0007.36,0003.46
2023-02-22 08:28:00,,0805.8,5.00,0.00,22.8,21.1,00.0,31.6,24.2,11.7,0000.0,0003.82,0007.36,0003.48
2023-02-22 08:29:00,,0805.9,5.00,0.00,22.7,20.9,00.0,31.6,24.2,11.7,0000.0,0003.84,0007.38,0003.48
2023-02-22 08:30:00,,0806.0,5.00,0.00,22.7,20.8,00.0,31.6,24.1,11.6,0000.0,0003.83,0007.30,0003.47
2023-02-22 08:31:00,,0806.0,5.00,0.00,22.6,20.6,00.0,31.6,24.0,11.6,0000.0,0003.81,0006.53,0003.46
2023-02-22 08:32:00,,0806.1,5.00,0.00,22.6,20.7,00.0,31.6,24.1,11.6,0000.0,0003.77,0006.33,0003.46
2023-02-22 08:33:00,,0806.2,5.03,0.00,22.7,21.6,00.0,31.5,24.4,11.6,0000.0,0003.75,0006.51,0003.45
2023-02-22 08:34:00,,0806.2,4.99,0.00,22.8,22.6,00.0,31.5,24.6,11.5,0000.0,0003.74,0007.45,0003.46
2023-02-22 08:35:00,,0806.2,4.99,0.00,22.9,23.0,00.0,31.5,24.7,11.4,0000.0,0003.74,0007.50,0003.45
2023-02-22 08:36:00,,0806.1,4.99,0.00,22.9,22.5,00.0,31.6,24.7,11.4,0000.0,0003.74,0007.41,0003.45
2023-02-22 08:37:00,,0806.1,5.01,0.00,22.8,22.0,00.0,31.6,24.6,11.4,0000.0,0003.73,0007.28,0003.45
2023-02-22 08:38:00,,0806.2,5.00,0.00,22.8,21.7,00.0,31.6,24.4,11.4,0000.0,0003.74,0007.30,0003.44
2023-02-22 08:39:00,,0806.2,4.99,0.00,22.8,21.4,00.0,31.6,24.4,11.4,0000.0,0003.73,0007.28,0003.44
2023-02-22 08:40:00,,0806.2,5.01,0.00,22.7,21.2,00.0,31.6,24.3,11.4,0000.0,0003.71,0007.21,0003.43
2023-02-22 08:41:00,,0806.2,4.99,0.00,22.7,21.1,00.0,31.5,24.3,11.4,0000.0,0003.71,0007.10,0003.44
2023-02-22 08:42:00,,0806.2,4.99,0.00,22.7,21.0,00.0,31.5,24.2,11.4,0000.0,0003.74,0007.37,0003.43
2023-02-22 08:43:00,,0806.2,4.99,0.00,22.6,20.8,00.0,31.5,24.2,11.4,0000.0,0003.77,0007.51,0003.44
2023-02-22 08:44:00,,0806.2,5.00,0.00,22.6,20.7,00.0,31.5,24.1,11.4,0000.0,0003.78,0007.26,0003.44
2023-02-22 08:45:00,,0806.2,5.01,0.00,22.5,20.6,00.0,31.5,24.1,11.4,0000.0,0003.78,0006.28,0003.45
2023-02-22 08:46:00,,0806.2,5.00,0.00,22.5,20.6,00.0,31.4,24.0,11.4,0000.0,0003.77,0006.15,0003.45
2023-02-22 08:47:00,,0806.2,5.00,0.00,22.5,20.5,00.0,31.4,24.0,11.4,0000.0,0003.74,0006.04,0003.45
2023-02-22 08:48:00,,0806.3,5.00,0.00,22.4,20.6,00.0,31.4,24.0,11.4,0000.0,0003.74,0005.93,0003.44
2023-02-22 08:49:00,,0806.3,4.99,0.00,22.5,21.5,00.0,31.4,24.2,11.4,0000.0,0003.74,0005.96,0003.44
2023-02-22 08:50:00,,0806.2,4.99,0.00,22.6,22.5,00.0,31.3,24.5,11.3,0000.0,0003.74,0005.94,0003.44
2023-02-22 08:51:00,,0806.2,5.00,0.00,22.7,22.8,00.0,31.4,24.6,11.2,0000.0,0003.74,0005.98,0003.42
2023-02-22 08:52:00,,0806.2,5.00,0.00,22.7,22.4,00.0,31.4,24.6,11.1,0000.0,0003.72,0005.99,0003.42
2023-02-22 08:53:00,,0806.3,5.00,0.00,22.7,22.0,00.0,31.4,24.5,11.1,0000.0,0003.68,0005.64,0003.41
2023-02-22 08:54:00,,0806.2,5.00,0.00,22.7,21.7,00.0,31.4,24.4,11.0,0000.0,0003.66,0005.48,0003.40
2023-02-22 08:55:00,,0806.2,5.00,0.00,22.7,21.5,00.0,31.4,24.3,11.0,0000.0,0003.66,0005.48,0003.39
2023-02-22 08:56:00,,0806.2,5.00,0.00,22.6,21.3,00.0,31.4,24.3,11.0,0000.0,0003.67,0005.57,0003.37
2023-02-22 08:57:00,,0806.2,5.00,0.00,22.6,21.1,00.0,31.4,24.3,11.0,0000.0,0003.65,0005.54,0003.35
2023-02-22 08:58:00,,0806.2,5.01,0.00,22.6,21.0,00.0,31.4,24.2,11.0,0000.0,0003.65,0005.88,0003.34
2023-02-22 08:59:00,,0806.2,5.00,0.00,22.6,20.8,00.0,31.4,24.1,11.0,0000.0,0003.63,0005.75,0003.33
